cubair logo

Cub Air Flight LLC Launches Aviation Explorer Program

ExplorersHartford, WI, April, 2014..... Cub Air Flight LLC, a primary flight training school located at the Hartford Municipal Airport, introduced a new aviation program for young men and women.

The Aviation Explorer Program, designed to introduce 15--20 year old young men and women with an interest in aviation to the many aspects in the field of aviation, became a reality when Cub Air Flight and the Bay-Lakes Council, together, launched this ongoing program. Following the guidelines of S.T.E.M.

(Science, Technology, Engineering and Mathematics) this endeavor exposes individuals to "hands on" experience in many aspects of aviation.

The group meets at the Hartford Airport every other Tuesday evening during the school year and will meet more frequently during the summer. Aircraft owner, Dave Courtney, has made his airplane available to the group for the purpose of learning how to dismantle, remove fabric covering, prep and/or replace metal parts, recover with new fabric, repaint and re-assemble the airplane.

At the meeting on Tuesday, April 22nd, the group cut and removed the fabric on all of the flight control surfaces as well as removed a number of the metal parts. The next session will be held on Tuesday, May 6th and will involve removing the control surfaces, inspecting for corrosion and cleaning the surfaces in preparation for painting with Epoxy primer.

"Depending on the number of participants, we may be able to begin removing the covering from the fuselage next time as well," stated Steve Krog, owner of Cub Air Flight LLC and co-director of the program.

In addition to Krog, John Palese, retired American Airlines pilot, and Marc Stamsta, owner of Max Aero Inc., are also assisting with the program. Local physician Dr. Larry Sullivan has also played an active role.

"The enthusiasm has been high so far," commented Stamsta, "the participating young men and women really seem to dig in and get involved."

The participants currently enrolled, from Hartford, West Bend, Slinger, Kewaskum and Belguim all have aspirations toward college degrees in aviation. However, that is not a prerequisite. Anyone age 15-20 with an interest in aviation is invited to become a member of the group.

For more information, contact Cub Air Flight any time from 8:00 AM to 6:00 PM at 262.725.3591.

Come fly with us and feel the freedom of
flying, the way it's supposed to be!


"Old School Is Still Cool!"

 

Our Instructors

Steve Krog

Find Us Here!

Hartford Municipal

Airport (KHXF)

4200 Highway U

Hartford, WI 53027

Our Staff

Steve Krog
Sharon Krog
Jamie Weber
Chris Hibben

Oshkosh Weather

[Source: ADDS]
METAR
KOSH 270653Z 30003KT 3SM BR FEW028 SCT038 21/21 A2996 RMK AO2 SLP131 T02110206 =
TAF
KOSH 270629Z 2706/2806 33005KT P6SM SCT060 TEMPO 2706/2708 1/4SM FG BKN001 FM270800 02006KT 1SM BR SCT001 TEMPO 2708/2712 1/4SM FG BKN001 FM271200 04010KT P6SM SKC FM271700 04010KT P6SM SCT040 FM280200 03006KT P6SM SCT060 =

West Bend Weather

[Source: ADDS]
METAR
KETB 270635Z AUTO 33003KT 7SM -RA SCT014 BKN022 OVC046 21/21 A2996 RMK AO2 P0041 =
TAF

Juneau Weather

[Source: ADDS]
METAR
KUNU 270655Z AUTO 00000KT 2 1/2SM BR CLR 20/20 A2997 RMK AO2 T02040201 =
TAF

Fond Du Lac Weather

[Source: ADDS]
METAR
KFLD 270649Z AUTO 00000KT 1/4SM FG VV004 20/18 A2996 RMK AO2 SLP140 T02000183 =
TAF